| time (UTC) | temp F | wind direction | speed MPH | gust MPH | rain 1hr in | rain 24hr in | rain mn in | humidity % | barometer mb |
| 20260905203238 | 101 | 79 | 2.0 | 8.0 | 0.00 | 0.00 | 0.00 | 15 | 1011.3 |
| 20260905202738 | 100 | 218 | 1.0 | 5.0 | 0.00 | 0.00 | 0.00 | 15 | 1011.3 |
| 20260905202237 | 100 | 105 | 1.0 | 5.0 | 0.00 | 0.00 | 0.00 | 15 | 1011.4 |
| 20260905201738 | 101 | 170 | 2.0 | 9.0 | 0.00 | 0.00 | 0.00 | 14 | 1011.6 |
| 20260905201236 | 101 | 154 | 2.0 | 9.0 | 0.00 | 0.00 | 0.00 | 14 | 1011.5 |
| 20260905201006 | 101 | 96 | 1.0 | 4.0 | 0.00 | 0.00 | 0.00 | 14 | 1011.5 |
| 20260905200504 | 101 | 165 | 1.0 | 3.0 | 0.00 | 0.00 | 0.00 | 14 | 1011.6 |
| 20260905195733 | 100 | 309 | 1.0 | 2.0 | 0.00 | 0.00 | 0.00 | 14 | 1011.6 |
| 20260905195233 | 100 | 30 | 1.0 | 2.0 | 0.00 | 0.00 | 0.00 | 15 | 1011.7 |
| 20260905195003 | 100 | 354 | 1.0 | 5.0 | 0.00 | 0.00 | 0.00 | 15 | 1011.8 |
| 20260905194230 | 99 | 76 | 2.0 | 5.0 | 0.00 | 0.00 | 0.00 | 14 | 1011.9 |
| 20260905193957 | 99 | 38 | 1.0 | 5.0 | 0.00 | 0.00 | 0.00 | 14 | 1011.9 |
| 20260905193231 | 100 | 119 | 1.0 | 5.0 | 0.00 | 0.00 | 0.00 | 14 | 1012.0 |
| 20260905192730 | 99 | 157 | 1.0 | 4.0 | 0.00 | 0.00 | 0.00 | 15 | 1012.1 |
| 20260905192229 | 99 | 3 | 0.0 | 3.0 | 0.00 | 0.00 | 0.00 | 14 | 1012.2 |
| 20260905191728 | 99 | 42 | 1.0 | 6.0 | 0.00 | 0.00 | 0.00 | 13 | 1012.3 |
| 20260905191229 | 98 | 158 | 2.0 | 6.0 | 0.00 | 0.00 | 0.00 | 14 | 1012.4 |
| 20260905190728 | 97 | 217 | 1.0 | 4.0 | 0.00 | 0.00 | 0.00 | 15 | 1012.4 |
| 20260905190457 | 96 | 160 | 1.0 | 3.0 | 0.00 | 0.00 | 0.00 | 15 | 1012.4 |
| 20260905185730 | 95 | 305 | 1.0 | 3.0 | 0.00 | 0.00 | 0.00 | 15 | 1012.5 |
| 20260905185450 | 96 | 331 | 2.0 | 5.0 | 0.00 | 0.00 | 0.00 | 16 | 1012.5 |
| 20260905184729 | 96 | 359 | 2.0 | 5.0 | 0.00 | 0.00 | 0.00 | 16 | 1012.6 |
| 20260905184229 | 96 | 227 | 1.0 | 5.0 | 0.00 | 0.00 | 0.00 | 15 | 1012.5 |
| 20260905183725 | 96 | 269 | 1.0 | 5.0 | 0.00 | 0.00 | 0.00 | 15 | 1012.6 |
| 20260905183225 | 95 | 216 | 1.0 | 5.0 | 0.00 | 0.00 | 0.00 | 16 | 1012.7 |
| 20260905182725 | 95 | 171 | 1.0 | 3.0 | 0.00 | 0.00 | 0.00 | 16 | 1012.7 |
| 20260905182225 | 95 | 239 | 1.0 | 3.0 | 0.00 | 0.00 | 0.00 | 17 | 1012.8 |
| 20260905181724 | 95 | 213 | 2.0 | 4.0 | 0.00 | 0.00 | 0.00 | 17 | 1012.8 |
| 20260905181224 | 94 | 245 | 2.0 | 5.0 | 0.00 | 0.00 | 0.00 | 16 | 1012.9 |
| 20260905180225 | 94 | 292 | 0.0 | 3.0 | 0.00 | 0.00 | 0.00 | 17 | 1012.8 |
| 20260905175725 | 94 | 347 | 0.0 | 2.0 | 0.00 | 0.00 | 0.00 | 18 | 1012.9 |
| 20260905175221 | 94 | 335 | 0.0 | 3.0 | 0.00 | 0.00 | 0.00 | 19 | 1012.9 |
| 20260905174720 | 94 | 255 | 1.0 | 3.0 | 0.00 | 0.00 | 0.00 | 16 | 1012.9 |
| 20260905174449 | 94 | 152 | 1.0 | 4.0 | 0.00 | 0.00 | 0.00 | 17 | 1012.9 |
| 20260905173721 | 93 | 155 | 1.0 | 4.0 | 0.00 | 0.00 | 0.00 | 17 | 1012.7 |
| 20260905173222 | 93 | 207 | 0.0 | 3.0 | 0.00 | 0.00 | 0.00 | 19 | 1012.7 |
| 20260905172721 | 93 | 218 | 0.0 | 2.0 | 0.00 | 0.00 | 0.00 | 20 | 1012.8 |
| 20260905172444 | 92 | 227 | 0.0 | 2.0 | 0.00 | 0.00 | 0.00 | 18 | 1012.7 |
| 20260905171720 | 92 | 79 | 0.0 | 1.0 | 0.00 | 0.00 | 0.00 | 19 | 1012.7 |
| 20260905171221 | 92 | 219 | 0.0 | 2.0 | 0.00 | 0.00 | 0.00 | 20 | 1012.7 |
| 20260905170716 | 91 | 176 | 0.0 | 2.0 | 0.00 | 0.00 | 0.00 | 19 | 1012.7 |
| 20260905170215 | 91 | 160 | 0.0 | 2.0 | 0.00 | 0.00 | 0.00 | 21 | 1012.6 |
| 20260905165715 | 90 | 189 | 0.0 | 1.0 | 0.00 | 0.00 | 0.00 | 21 | 1012.6 |
| 20260905164714 | 89 | 111 | 0.0 | 1.0 | 0.00 | 0.00 | 0.00 | 21 | 1012.6 |
| 20260905164213 | 89 | 108 | 0.0 | 2.0 | 0.00 | 0.00 | 0.00 | 23 | 1012.7 |
| 20260905163710 | 89 | 116 | 0.0 | 2.0 | 0.00 | 0.00 | 0.00 | 24 | 1012.7 |
| 20260905163208 | 89 | 165 | 1.0 | 3.0 | 0.00 | 0.00 | 0.00 | 23 | 1012.6 |
| 20260905162710 | 89 | 133 | 1.0 | 3.0 | 0.00 | 0.00 | 0.00 | 24 | 1012.7 |
| 20260905162437 | 90 | 108 | 1.0 | 2.0 | 0.00 | 0.00 | 0.00 | 23 | 1012.6 |
| 20260905161706 | 90 | 79 | 0.0 | 2.0 | 0.00 | 0.00 | 0.00 | 23 | 1012.6 |
| 20260905161205 | 89 | 228 | 0.0 | 1.0 | 0.00 | 0.00 | 0.00 | 24 | 1012.6 |
| 20260905160933 | 89 | 145 | 0.0 | 2.0 | 0.00 | 0.00 | 0.00 | 24 | 1012.6 |
| 20260905160204 | 88 | 113 | 0.0 | 2.0 | 0.00 | 0.00 | 0.00 | 26 | 1012.6 |
| 20260905155423 | 87 | 152 | 0.0 | 2.0 | 0.00 | 0.00 | 0.00 | 27 | 1012.5 |
| 20260905154703 | 86 | 64 | 0.0 | 2.0 | 0.00 | 0.00 | 0.00 | 28 | 1012.5 |
| 20260905153700 | 84 | 153 | 0.0 | 2.0 | 0.00 | 0.00 | 0.00 | 31 | 1012.5 |
| 20260905153202 | 82 | 124 | 0.0 | 2.0 | 0.00 | 0.00 | 0.00 | 32 | 1012.5 |
| 20260905152703 | 80 | 147 | 0.0 | 2.0 | 0.00 | 0.00 | 0.00 | 34 | 1012.5 |
| 20260905152201 | 80 | 114 | 1.0 | 3.0 | 0.00 | 0.00 | 0.00 | 34 | 1012.5 |
| 20260905151701 | 79 | 168 | 1.0 | 3.0 | 0.00 | 0.00 | 0.00 | 37 | 1012.5 |
| 20260905151202 | 79 | 210 | 0.0 | 2.0 | 0.00 | 0.00 | 0.00 | 37 | 1012.4 |
| 20260905150701 | 78 | 224 | 0.0 | 2.0 | 0.00 | 0.00 | 0.00 | 39 | 1012.4 |
| 20260905150429 | 78 | 193 | 1.0 | 2.0 | 0.00 | 0.00 | 0.00 | 40 | 1012.5 |
| 20260905145701 | 78 | 184 | 0.0 | 2.0 | 0.00 | 0.00 | 0.00 | 40 | 1012.4 |
| 20260905145202 | 78 | 207 | 1.0 | 3.0 | 0.00 | 0.00 | 0.00 | 39 | 1012.4 |
| 20260905144701 | 78 | 193 | 0.0 | 3.0 | 0.00 | 0.00 | 0.00 | 38 | 1012.3 |
| 20260905144429 | 78 | 150 | 0.0 | 2.0 | 0.00 | 0.00 | 0.00 | 37 | 1012.2 |
| 20260905143927 | 77 | 139 | 0.0 | 2.0 | 0.00 | 0.00 | 0.00 | 37 | 1012.3 |
| 20260905143203 | 76 | 139 | 0.0 | 2.0 | 0.00 | 0.00 | 0.00 | 41 | 1012.2 |
| 20260905142704 | 76 | 155 | 0.0 | 2.0 | 0.00 | 0.00 | 0.00 | 42 | 1012.2 |
| 20260905142425 | 75 | 155 | 0.0 | 2.0 | 0.00 | 0.00 | 0.00 | 42 | 1012.1 |
| 20260905141702 | 75 | 165 | 0.0 | 1.0 | 0.00 | 0.00 | 0.00 | 43 | 1012.0 |
| 20260905141159 | 75 | 150 | 0.0 | 0.0 | 0.00 | 0.00 | 0.00 | 41 | 1011.8 |
| 20260905140653 | 75 | 150 | 0.0 | 0.0 | 0.00 | 0.00 | 0.00 | 42 | 1011.8 |
| 20260905140147 | 75 | 150 | 0.0 | 2.0 | 0.00 | 0.00 | 0.00 | 44 | 1011.8 |
| 20260905135641 | 74 | 177 | 0.0 | 2.0 | 0.00 | 0.00 | 0.00 | 43 | 1011.8 |
| 20260905135134 | 73 | 183 | 0.0 | 1.0 | 0.00 | 0.00 | 0.00 | 43 | 1011.7 |
| 20260905134634 | 72 | 177 | 0.0 | 1.0 | 0.00 | 0.00 | 0.00 | 44 | 1011.7 |
| 20260905134132 | 72 | 144 | 0.0 | 1.0 | 0.00 | 0.00 | 0.00 | 43 | 1011.5 |
| 20260905133632 | 71 | 40 | 0.0 | 1.0 | 0.00 | 0.00 | 0.00 | 44 | 1011.5 |
| 20260905133133 | 71 | 39 | 0.0 | 0.0 | 0.00 | 0.00 | 0.00 | 45 | 1011.4 |
| 20260905132634 | 71 | 39 | 0.0 | 1.0 | 0.00 | 0.00 | 0.00 | 45 | 1011.5 |
| 20260905132132 | 71 | 39 | 0.0 | 1.0 | 0.00 | 0.00 | 0.00 | 45 | 1011.4 |
| 20260905131635 | 71 | 159 | 0.0 | 0.0 | 0.00 | 0.00 | 0.00 | 43 | 1011.3 |
| 20260905131133 | 72 | 159 | 0.0 | 0.0 | 0.00 | 0.00 | 0.00 | 44 | 1011.2 |
| 20260905130631 | 72 | 159 | 0.0 | 0.0 | 0.00 | 0.00 | 0.00 | 43 | 1011.3 |
| 20260905130132 | 72 | 165 | 0.0 | 0.0 | 0.00 | 0.00 | 0.00 | 42 | 1011.2 |
| 20260905125630 | 72 | 165 | 0.0 | 0.0 | 0.00 | 0.00 | 0.00 | 41 | 1011.2 |
| 20260905125131 | 73 | 165 | 0.0 | 0.0 | 0.00 | 0.00 | 0.00 | 41 | 1011.1 |
| 20260905124632 | 73 | 165 | 0.0 | 1.0 | 0.00 | 0.00 | 0.00 | 41 | 1011.1 |
| 20260905124130 | 73 | 165 | 0.0 | 1.0 | 0.00 | 0.00 | 0.00 | 41 | 1011.0 |
| 20260905123630 | 73 | 171 | 0.0 | 1.0 | 0.00 | 0.00 | 0.00 | 41 | 1011.1 |
| 20260905123131 | 73 | 179 | 0.0 | 0.0 | 0.00 | 0.00 | 0.00 | 41 | 1011.0 |
| 20260905122854 | 73 | 179 | 0.0 | 0.0 | 0.00 | 0.00 | 0.00 | 42 | 1010.9 |
| 20260905122129 | 73 | 179 | 0.0 | 0.0 | 0.00 | 0.00 | 0.00 | 41 | 1010.9 |
| 20260905121630 | 73 | 176 | 0.0 | 0.0 | 0.00 | 0.00 | 0.00 | 42 | 1010.9 |
| 20260905121128 | 72 | 176 | 0.0 | 0.0 | 0.00 | 0.00 | 0.00 | 43 | 1010.9 |
| 20260905120629 | 72 | 173 | 0.0 | 1.0 | 0.00 | 0.00 | 0.00 | 44 | 1010.9 |
| 20260905120359 | 72 | 173 | 0.0 | 1.0 | 0.00 | 0.00 | 0.00 | 43 | 1010.9 |
| 20260905115630 | 72 | 177 | 0.0 | 0.0 | 0.00 | 0.00 | 0.00 | 44 | 1010.8 |
| 20260905115132 | 73 | 177 | 0.0 | 0.0 | 0.00 | 0.00 | 0.00 | 43 | 1010.7 |
| 20260905114629 | 73 | 177 | 0.0 | 1.0 | 0.00 | 0.00 | 0.00 | 42 | 1010.7 |
| 20260905114128 | 73 | 177 | 0.0 | 1.0 | 0.00 | 0.00 | 0.00 | 42 | 1010.7 |
| 20260905113631 | 73 | 173 | 0.0 | 1.0 | 0.00 | 0.00 | 0.00 | 42 | 1010.8 |
| 20260905113130 | 73 | 177 | 0.0 | 1.0 | 0.00 | 0.00 | 0.00 | 42 | 1010.7 |
| 20260905112629 | 73 | 177 | 0.0 | 3.0 | 0.00 | 0.00 | 0.00 | 42 | 1010.6 |
| 20260905112129 | 73 | 177 | 0.0 | 3.0 | 0.00 | 0.00 | 0.00 | 42 | 1010.9 |
| 20260905111850 | 73 | 157 | 0.0 | 2.0 | 0.00 | 0.00 | 0.00 | 42 | 1010.8 |
| 20260905111129 | 73 | 158 | 0.0 | 2.0 | 0.00 | 0.00 | 0.00 | 42 | 1010.7 |
| 20260905110629 | 74 | 358 | 0.0 | 2.0 | 0.00 | 0.00 | 0.00 | 42 | 1010.8 |
| 20260905105619 | 74 | 220 | 0.0 | 0.0 | 0.00 | 0.00 | 0.00 | 41 | 1010.7 |
| 20260905105113 | 74 | 220 | 0.0 | 0.0 | 0.00 | 0.00 | 0.00 | 41 | 1010.7 |
| 20260905104608 | 74 | 220 | 0.0 | 0.0 | 0.00 | 0.00 | 0.00 | 41 | 1010.8 |
| 20260905104109 | 74 | 220 | 0.0 | 0.0 | 0.00 | 0.00 | 0.00 | 41 | 1010.9 |
| 20260905103607 | 75 | 220 | 0.0 | 0.0 | 0.00 | 0.00 | 0.00 | 40 | 1010.7 |
| 20260905103337 | 74 | 220 | 1.0 | 3.0 | 0.00 | 0.00 | 0.00 | 40 | 1010.7 |
| 20260905102602 | 75 | 220 | 1.0 | 3.0 | 0.00 | 0.00 | 0.00 | 41 | 1010.7 |
| 20260905102330 | 75 | 183 | 0.0 | 3.0 | 0.00 | 0.00 | 0.00 | 41 | 1010.7 |
| 20260905101602 | 75 | 147 | 0.0 | 1.0 | 0.00 | 0.00 | 0.00 | 40 | 1010.7 |
| 20260905101103 | 75 | 146 | 0.0 | 1.0 | 0.00 | 0.00 | 0.00 | 40 | 1010.6 |
| 20260905100602 | 76 | 117 | 0.0 | 1.0 | 0.00 | 0.00 | 0.00 | 39 | 1010.6 |
| 20260905095828 | 77 | 176 | 0.0 | 2.0 | 0.00 | 0.00 | 0.00 | 37 | 1010.7 |
| 20260905095103 | 77 | 138 | 0.0 | 2.0 | 0.00 | 0.00 | 0.00 | 37 | 1010.6 |
| 20260905094835 | 77 | 228 | 0.0 | 2.0 | 0.00 | 0.00 | 0.00 | 36 | 1010.7 |
| 20260905094100 | 77 | 196 | 0.0 | 2.0 | 0.00 | 0.00 | 0.00 | 36 | 1010.6 |
| 20260905093101 | 77 | 217 | 1.0 | 2.0 | 0.00 | 0.00 | 0.00 | 36 | 1010.7 |
| 20260905092601 | 77 | 194 | 0.0 | 2.0 | 0.00 | 0.00 | 0.00 | 36 | 1010.7 |
| 20260905092100 | 77 | 245 | 0.0 | 2.0 | 0.00 | 0.00 | 0.00 | 38 | 1010.7 |
| 20260905091056 | 77 | 108 | 0.0 | 2.0 | 0.00 | 0.00 | 0.00 | 39 | 1010.8 |
| 20260905090550 | 77 | 173 | 0.0 | 2.0 | 0.00 | 0.00 | 0.00 | 38 | 1010.7 |
| 20260905090044 | 77 | 109 | 0.0 | 2.0 | 0.00 | 0.00 | 0.00 | 38 | 1010.8 |
| 20260905085539 | 76 | 153 | 0.0 | 2.0 | 0.00 | 0.00 | 0.00 | 39 | 1010.9 |
| 20260905085039 | 76 | 202 | 0.0 | 1.0 | 0.00 | 0.00 | 0.00 | 39 | 1010.9 |
| 20260905084538 | 76 | 143 | 0.0 | 1.0 | 0.00 | 0.00 | 0.00 | 40 | 1010.8 |
| 20260905084038 | 76 | 212 | 0.0 | 1.0 | 0.00 | 0.00 | 0.00 | 40 | 1010.9 |
| 20260905083537 | 76 | 212 | 0.0 | 1.0 | 0.00 | 0.00 | 0.00 | 39 | 1010.9 |
| 20260905083035 | 77 | 213 | 0.0 | 1.0 | 0.00 | 0.00 | 0.00 | 40 | 1010.8 |
| 20260905082534 | 77 | 238 | 0.0 | 0.0 | 0.00 | 0.00 | 0.00 | 39 | 1010.9 |
| 20260905082034 | 77 | 179 | 0.0 | 0.0 | 0.00 | 0.00 | 0.00 | 39 | 1010.8 |
| 20260905081534 | 77 | 179 | 0.0 | 0.0 | 0.00 | 0.00 | 0.00 | 42 | 1010.9 |
| 20260905081034 | 77 | 179 | 0.0 | 1.0 | 0.00 | 0.00 | 0.00 | 38 | 1010.9 |
| 20260905080533 | 77 | 172 | 0.0 | 1.0 | 0.00 | 0.00 | 0.00 | 39 | 1010.8 |
| 20260905080300 | 78 | 164 | 0.0 | 1.0 | 0.00 | 0.00 | 0.00 | 39 | 1010.8 |
| 20260905075533 | 78 | 164 | 0.0 | 1.0 | 0.00 | 0.00 | 0.00 | 38 | 1010.8 |
| 20260905075030 | 78 | 157 | 0.0 | 0.0 | 0.00 | 0.00 | 0.00 | 38 | 1010.8 |
| 20260905074531 | 78 | 172 | 0.0 | 2.0 | 0.00 | 0.00 | 0.00 | 37 | 1010.7 |
| 20260905074030 | 78 | 172 | 0.0 | 2.0 | 0.00 | 0.00 | 0.00 | 37 | 1010.9 |
| 20260905073530 | 79 | 193 | 0.0 | 2.0 | 0.00 | 0.00 | 0.00 | 37 | 1010.8 |
| 20260905073030 | 78 | 129 | 0.0 | 1.0 | 0.00 | 0.00 | 0.00 | 37 | 1010.8 |
| 20260905072529 | 79 | 129 | 0.0 | 1.0 | 0.00 | 0.00 | 0.00 | 36 | 1010.7 |
| 20260905072026 | 79 | 96 | 0.0 | 1.0 | 0.00 | 0.00 | 0.00 | 35 | 1010.7 |
| 20260905071520 | 79 | 237 | 0.0 | 0.0 | 0.00 | 0.00 | 0.00 | 35 | 1010.6 |
| 20260905071015 | 79 | 237 | 0.0 | 1.0 | 0.00 | 0.00 | 0.00 | 35 | 1010.6 |
| 20260905070507 | 80 | 237 | 0.0 | 1.0 | 0.00 | 0.00 | 0.00 | 35 | 1010.6 |
| 20260905070241 | 80 | 237 | 0.0 | 1.0 | 0.00 | 0.00 | 0.00 | 35 | 1010.7 |
| 20260905065508 | 80 | 236 | 0.0 | 1.0 | 0.00 | 0.00 | 0.00 | 37 | 1010.7 |
| 20260905065147 | 80 | 236 | 0.0 | 2.0 | 0.00 | 0.00 | 0.00 | 34 | 1010.7 |
| 20260905065123 | 80 | 237 | 0.0 | 2.0 | 0.00 | 0.00 | 0.00 | 34 | 1010.5 |
| 20260905064238 | 80 | 163 | 0.0 | 1.0 | 0.00 | 0.00 | 0.00 | 35 | 1010.4 |
| 20260905063733 | 81 | 163 | 0.0 | 1.0 | 0.00 | 0.00 | 0.00 | 34 | 1010.5 |
| 20260905063004 | 81 | 116 | 0.0 | 1.0 | 0.00 | 0.00 | 0.00 | 34 | 1010.4 |
| 20260905062501 | 81 | 159 | 0.0 | 1.0 | 0.00 | 0.00 | 0.00 | 34 | 1010.3 |
| 20260905062003 | 82 | 160 | 0.0 | 1.0 | 0.00 | 0.00 | 0.00 | 34 | 1010.3 |
| 20260905061503 | 82 | 105 | 0.0 | 1.0 | 0.00 | 0.00 | 0.00 | 32 | 1010.3 |
| 20260905061002 | 82 | 106 | 0.0 | 1.0 | 0.00 | 0.00 | 0.00 | 32 | 1010.2 |
| 20260905060503 | 82 | 115 | 0.0 | 1.0 | 0.00 | 0.00 | 0.00 | 30 | 1010.3 |
| 20260905060232 | 82 | 132 | 0.0 | 1.0 | 0.00 | 0.00 | 0.00 | 31 | 1010.3 |
| 20260905055502 | 82 | 133 | 0.0 | 1.0 | 0.00 | 0.00 | 0.00 | 30 | 1010.2 |
| 20260905055002 | 82 | 174 | 0.0 | 0.0 | 0.00 | 0.00 | 0.00 | 30 | 1010.2 |
| 20260905054501 | 82 | 174 | 0.0 | 1.0 | 0.00 | 0.00 | 0.00 | 30 | 1010.0 |
| 20260905054001 | 82 | 175 | 0.0 | 1.0 | 0.00 | 0.00 | 0.00 | 30 | 1010.1 |
| 20260905052957 | 83 | 311 | 0.0 | 1.0 | 0.00 | 0.00 | 0.00 | 29 | 1010.0 |
| 20260905052450 | 83 | 309 | 0.0 | 1.0 | 0.00 | 0.00 | 0.00 | 29 | 1010.0 |
| 20260905051438 | 83 | 10 | 0.0 | 1.0 | 0.00 | 0.00 | 0.00 | 29 | 1010.1 |
| 20260905050931 | 83 | 317 | 0.0 | 1.0 | 0.00 | 0.00 | 0.00 | 29 | 1010.0 |
| 20260905050434 | 83 | 316 | 0.0 | 1.0 | 0.00 | 0.00 | 0.00 | 29 | 1010.0 |
| 20260905045930 | 83 | 7 | 0.0 | 1.0 | 0.00 | 0.00 | 0.00 | 29 | 1009.9 |
| 20260905045430 | 84 | 7 | 0.0 | 1.0 | 0.00 | 0.00 | 0.00 | 29 | 1009.8 |
| 20260905044930 | 84 | 67 | 0.0 | 0.0 | 0.00 | 0.00 | 0.00 | 29 | 1009.9 |
| 20260905044431 | 84 | 297 | 0.0 | 1.0 | 0.00 | 0.00 | 0.00 | 29 | 1009.9 |
| 20260905044200 | 85 | 297 | 0.0 | 2.0 | 0.00 | 0.00 | 0.00 | 29 | 1009.8 |
| 20260905043429 | 85 | 269 | 0.0 | 2.0 | 0.00 | 0.00 | 0.00 | 28 | 1009.8 |
| 20260905042929 | 86 | 1 | 0.0 | 1.0 | 0.00 | 0.00 | 0.00 | 28 | 1009.7 |
| 20260905042655 | 86 | 67 | 0.0 | 2.0 | 0.00 | 0.00 | 0.00 | 28 | 1009.6 |
| 20260905041929 | 86 | 62 | 0.0 | 2.0 | 0.00 | 0.00 | 0.00 | 27 | 1009.5 |
| 20260905041430 | 87 | 77 | 0.0 | 2.0 | 0.00 | 0.00 | 0.00 | 27 | 1009.5 |
| 20260905040928 | 87 | 8 | 0.0 | 2.0 | 0.00 | 0.00 | 0.00 | 27 | 1009.5 |
| 20260905040431 | 87 | 44 | 0.0 | 2.0 | 0.00 | 0.00 | 0.00 | 27 | 1009.4 |
| 20260905035931 | 87 | 353 | 1.0 | 3.0 | 0.00 | 0.00 | 0.00 | 27 | 1009.3 |
| 20260905035430 | 88 | 42 | 1.0 | 4.0 | 0.00 | 0.00 | 0.00 | 26 | 1009.3 |
| 20260905034929 | 89 | 33 | 1.0 | 4.0 | 0.00 | 0.00 | 0.00 | 26 | 1009.2 |
| 20260905034429 | 89 | 356 | 1.0 | 5.0 | 0.00 | 0.00 | 0.00 | 24 | 1009.1 |
| 20260905033926 | 90 | 359 | 1.0 | 5.0 | 0.00 | 0.00 | 0.00 | 23 | 1009.0 |
| 20260905033420 | 91 | 49 | 1.0 | 8.0 | 0.00 | 0.00 | 0.00 | 22 | 1009.0 |
| 20260905032914 | 92 | 2 | 4.0 | 12.0 | 0.00 | 0.00 | 0.00 | 22 | 1008.9 |
| 20260905032640 | 92 | 248 | 6.0 | 13.0 | 0.00 | 0.00 | 0.00 | 22 | 1008.9 |
| 20260905031902 | 92 | 254 | 6.0 | 14.0 | 0.00 | 0.00 | 0.00 | 23 | 1008.7 |
| 20260905031629 | 92 | 271 | 7.0 | 14.0 | 0.00 | 0.00 | 0.00 | 24 | 1008.6 |
| 20260905030902 | 92 | 265 | 7.0 | 14.0 | 0.00 | 0.00 | 0.00 | 24 | 1008.7 |
| 20260905030402 | 92 | 191 | 7.0 | 14.0 | 0.00 | 0.00 | 0.00 | 24 | 1008.6 |
| 20260905025902 | 93 | 250 | 9.0 | 16.0 | 0.00 | 0.00 | 0.00 | 24 | 1008.4 |
| 20260905025402 | 93 | 214 | 9.0 | 16.0 | 0.00 | 0.00 | 0.00 | 24 | 1008.2 |
| 20260905024901 | 93 | 231 | 8.0 | 15.0 | 0.00 | 0.00 | 0.00 | 23 | 1008.1 |
| 20260905024401 | 94 | 240 | 6.0 | 12.0 | 0.00 | 0.00 | 0.00 | 23 | 1008.1 |
| 20260905023901 | 94 | 263 | 5.0 | 12.0 | 0.00 | 0.00 | 0.00 | 23 | 1008.1 |
| 20260905023401 | 94 | 254 | 4.0 | 14.0 | 0.00 | 0.00 | 0.00 | 22 | 1008.2 |
| 20260905022904 | 94 | 260 | 3.0 | 14.0 | 0.00 | 0.00 | 0.00 | 22 | 1008.1 |
| 20260905022628 | 93 | 212 | 2.0 | 6.0 | 0.00 | 0.00 | 0.00 | 22 | 1008.1 |
| 20260905021904 | 93 | 32 | 2.0 | 5.0 | 0.00 | 0.00 | 0.00 | 22 | 1008.2 |
| 20260905021403 | 93 | 39 | 3.0 | 9.0 | 0.00 | 0.00 | 0.00 | 22 | 1008.0 |
| 20260905020902 | 93 | 338 | 4.0 | 10.0 | 0.00 | 0.00 | 0.00 | 22 | 1007.9 |
| 20260905020400 | 94 | 318 | 4.0 | 12.0 | 0.00 | 0.00 | 0.00 | 21 | 1008.0 |
| 20260905015902 | 94 | 317 | 3.0 | 12.0 | 0.00 | 0.00 | 0.00 | 21 | 1007.8 |
| 20260905015402 | 94 | 337 | 2.0 | 9.0 | 0.00 | 0.00 | 0.00 | 21 | 1007.9 |
| 20260905014856 | 95 | 352 | 2.0 | 6.0 | 0.00 | 0.00 | 0.00 | 21 | 1007.9 |
| 20260905014350 | 95 | 43 | 3.0 | 6.0 | 0.00 | 0.00 | 0.00 | 21 | 1008.0 |
| 20260905013850 | 96 | 344 | 2.0 | 6.0 | 0.00 | 0.00 | 0.00 | 21 | 1007.9 |
| 20260905013348 | 96 | 339 | 2.0 | 7.0 | 0.00 | 0.00 | 0.00 | 21 | 1007.8 |
| 20260905013110 | 97 | 348 | 1.0 | 7.0 | 0.00 | 0.00 | 0.00 | 21 | 1007.9 |
| 20260905012614 | 98 | 346 | 0.0 | 4.0 | 0.00 | 0.00 | 0.00 | 20 | 1007.9 |
| 20260905011846 | 98 | 58 | 0.0 | 2.0 | 0.00 | 0.00 | 0.00 | 19 | 1007.7 |
| 20260905011347 | 98 | 52 | 0.0 | 1.0 | 0.00 | 0.00 | 0.00 | 19 | 1007.8 |
| 20260905010846 | 99 | 21 | 0.0 | 1.0 | 0.00 | 0.00 | 0.00 | 18 | 1008.0 |
| 20260905010344 | 99 | 18 | 0.0 | 3.0 | 0.00 | 0.00 | 0.00 | 18 | 1008.0 |
| 20260905005843 | 99 | 15 | 1.0 | 3.0 | 0.00 | 0.00 | 0.00 | 19 | 1008.0 |
| 20260905005342 | 99 | 10 | 1.0 | 3.0 | 0.00 | 0.00 | 0.00 | 20 | 1007.9 |
| 20260905004842 | 99 | 44 | 1.0 | 3.0 | 0.00 | 0.00 | 0.00 | 19 | 1007.9 |
| 20260905004613 | 99 | 349 | 1.0 | 6.0 | 0.00 | 0.00 | 0.00 | 18 | 1007.9 |
| 20260905004108 | 99 | 12 | 2.0 | 6.0 | 0.00 | 0.00 | 0.00 | 18 | 1007.8 |
| 20260905003608 | 99 | 326 | 1.0 | 6.0 | 0.00 | 0.00 | 0.00 | 18 | 1007.8 |
| 20260905003108 | 99 | 32 | 1.0 | 4.0 | 0.00 | 0.00 | 0.00 | 19 | 1007.9 |
| 20260905002340 | 99 | 172 | 1.0 | 4.0 | 0.00 | 0.00 | 0.00 | 18 | 1007.9 |
| 20260905001839 | 99 | 337 | 1.0 | 4.0 | 0.00 | 0.00 | 0.00 | 18 | 1007.9 |
| 20260905001606 | 99 | 62 | 1.0 | 4.0 | 0.00 | 0.00 | 0.00 | 18 | 1008.0 |
| 20260905000835 | 99 | 122 | 2.0 | 5.0 | 0.00 | 0.00 | 0.00 | 18 | 1008.0 |
| 20260905000334 | 99 | 55 | 2.0 | 5.0 | 0.00 | 0.00 | 0.00 | 18 | 1008.0 |
| 20260904235834 | 99 | 73 | 2.0 | 6.0 | 0.00 | 0.00 | 0.00 | 19 | 1008.0 |
| 20260904235333 | 99 | 103 | 2.0 | 6.0 | 0.00 | 0.00 | 0.00 | 19 | 1008.0 |
| 20260904234832 | 99 | 65 | 2.0 | 5.0 | 0.00 | 0.00 | 0.00 | 19 | 1008.0 |
| 20260904234332 | 99 | 114 | 1.0 | 4.0 | 0.00 | 0.00 | 0.00 | 18 | 1008.1 |
| 20260904233830 | 99 | 126 | 1.0 | 3.0 | 0.00 | 0.00 | 0.00 | 19 | 1008.1 |
| 20260904233330 | 98 | 124 | 1.0 | 5.0 | 0.00 | 0.00 | 0.00 | 18 | 1008.1 |
| 20260904232830 | 99 | 48 | 1.0 | 5.0 | 0.00 | 0.00 | 0.00 | 19 | 1008.1 |
| 20260904232331 | 98 | 56 | 1.0 | 4.0 | 0.00 | 0.00 | 0.00 | 20 | 1008.0 |
| 20260904231830 | 98 | 41 | 2.0 | 5.0 | 0.00 | 0.00 | 0.00 | 19 | 1008.1 |
| 20260904231330 | 99 | 89 | 2.0 | 5.0 | 0.00 | 0.00 | 0.00 | 19 | 1008.2 |
| 20260904230829 | 99 | 41 | 2.0 | 6.0 | 0.00 | 0.00 | 0.00 | 19 | 1008.2 |
| 20260904230329 | 99 | 38 | 2.0 | 6.0 | 0.00 | 0.00 | 0.00 | 19 | 1008.4 |
| 20260904225831 | 99 | 53 | 2.0 | 7.0 | 0.00 | 0.00 | 0.00 | 19 | 1008.4 |
| 20260904225330 | 99 | 127 | 2.0 | 7.0 | 0.00 | 0.00 | 0.00 | 19 | 1008.5 |
| 20260904224829 | 99 | 113 | 1.0 | 5.0 | 0.00 | 0.00 | 0.00 | 19 | 1008.5 |
| 20260904224329 | 99 | 307 | 2.0 | 6.0 | 0.00 | 0.00 | 0.00 | 20 | 1008.4 |
| 20260904223829 | 98 | 89 | 2.0 | 6.0 | 0.00 | 0.00 | 0.00 | 19 | 1008.4 |
| 20260904223330 | 98 | 347 | 2.0 | 5.0 | 0.00 | 0.00 | 0.00 | 18 | 1008.6 |
| 20260904222831 | 98 | 357 | 2.0 | 5.0 | 0.00 | 0.00 | 0.00 | 19 | 1008.6 |
| 20260904222329 | 98 | 8 | 1.0 | 6.0 | 0.00 | 0.00 | 0.00 | 18 | 1008.7 |
| 20260904221830 | 99 | 316 | 1.0 | 6.0 | 0.00 | 0.00 | 0.00 | 18 | 1008.7 |
| 20260904221329 | 98 | 86 | 1.0 | 5.0 | 0.00 | 0.00 | 0.00 | 17 | 1008.8 |
| 20260904220829 | 98 | 8 | 2.0 | 6.0 | 0.00 | 0.00 | 0.00 | 20 | 1008.8 |
| 20260904220330 | 98 | 61 | 2.0 | 6.0 | 0.00 | 0.00 | 0.00 | 18 | 1008.8 |
| 20260904215829 | 97 | 359 | 1.0 | 3.0 | 0.00 | 0.00 | 0.00 | 18 | 1008.9 |
| 20260904215557 | 97 | 304 | 1.0 | 5.0 | 0.00 | 0.00 | 0.00 | 18 | 1008.9 |
| 20260904214830 | 96 | 316 | 1.0 | 5.0 | 0.00 | 0.00 | 0.00 | 18 | 1008.9 |
| 20260904214554 | 97 | 18 | 2.0 | 6.0 | 0.00 | 0.00 | 0.00 | 18 | 1009.2 |
| 20260904213829 | 97 | 348 | 2.0 | 6.0 | 0.00 | 0.00 | 0.00 | 19 | 1009.3 |
| 20260904213329 | 97 | 30 | 2.0 | 6.0 | 0.00 | 0.00 | 0.00 | 19 | 1009.2 |
| 20260904213054 | 96 | 319 | 2.0 | 6.0 | 0.00 | 0.00 | 0.00 | 19 | 1009.4 |
| 20260904212330 | 96 | 330 | 2.0 | 6.0 | 0.00 | 0.00 | 0.00 | 18 | 1009.4 |
| 20260904211831 | 97 | 328 | 2.0 | 6.0 | 0.00 | 0.00 | 0.00 | 17 | 1009.3 |
| 20260904211601 | 97 | 330 | 1.0 | 6.0 | 0.00 | 0.00 | 0.00 | 17 | 1009.3 |
| 20260904210829 | 97 | 81 | 1.0 | 4.0 | 0.00 | 0.00 | 0.00 | 17 | 1009.3 |
| 20260904210330 | 97 | 217 | 1.0 | 5.0 | 0.00 | 0.00 | 0.00 | 17 | 1009.3 |
| 20260904205830 | 96 | 316 | 2.0 | 5.0 | 0.00 | 0.00 | 0.00 | 20 | 1009.4 |
| 20260904205329 | 97 | 349 | 2.0 | 6.0 | 0.00 | 0.00 | 0.00 | 19 | 1009.5 |
| 20260904204831 | 97 | 51 | 1.0 | 6.0 | 0.00 | 0.00 | 0.00 | 19 | 1009.6 |
| 20260904204330 | 97 | 224 | 1.0 | 4.0 | 0.00 | 0.00 | 0.00 | 18 | 1009.7 |
| 20260904203829 | 96 | 314 | 1.0 | 4.0 | 0.00 | 0.00 | 0.00 | 19 | 1009.7 |